When you browse on this site, cookies collect data to enhance your experience and personalize the content and advertising you see.
Visit our Privacy Policy to learn more. By continuing to use the site, you agree to this use of cookies and data.

Hourly Weather Nakhchivan

Today, 11 July, Saturday

Time Temperature Precipitation Wind Pressure Humidity
00:00 +25°C° 0.2 mm 2 mps 687 mmHg 60%
01:00 +25°C° 0.1 mm 2 mps 687 mmHg 61%
02:00 +25°C° 0.1 mm 2 mps 687 mmHg 62%
03:00 +25°C° 0.1 mm 1 mps 687 mmHg 62%
04:00 +25°C° 0 mm 2 mps 687 mmHg 62%
05:00 +24°C° 0 mm 2 mps 688 mmHg 61%
06:00 +24°C° 0 mm 2 mps 688 mmHg 61%
07:00 +25°C° 0 mm 2 mps 688 mmHg 57%
08:00 +26°C° 0 mm 2 mps 687 mmHg 53%
09:00 +27°C° 0 mm 2 mps 687 mmHg 48%
10:00 +28°C° 0 mm 2 mps 687 mmHg 45%
11:00 +30°C° 0 mm 3 mps 687 mmHg 41%
12:00 +31°C° 0 mm 3 mps 687 mmHg 37%
13:00 +33°C° 0 mm 4 mps 687 mmHg 35%
14:00 +33°C° 0 mm 5 mps 687 mmHg 34%
15:00 +34°C° 0 mm 5 mps 687 mmHg 32%
16:00 +33°C° 0.1 mm 6 mps 687 mmHg 35%
17:00 +32°C° 0.1 mm 6 mps 687 mmHg 37%
18:00 +30°C° 0.1 mm 7 mps 687 mmHg 40%
19:00 +29°C° 0.3 mm 5 mps 687 mmHg 43%
20:00 +28°C° 0.3 mm 4 mps 687 mmHg 46%
21:00 +27°C° 0.3 mm 3 mps 687 mmHg 49%
22:00 +27°C° 0 mm 3 mps 687 mmHg 51%
23:00 +26°C° 0 mm 2 mps 687 mmHg 53%

Tomorrow, 12 July, Sunday

Time Temperature Precipitation Wind Pressure Humidity
00:00 +26°C° 0 mm 2 mps 686 mmHg 55%
01:00 +25°C° 0 mm 2 mps 686 mmHg 57%
02:00 +25°C° 0 mm 2 mps 686 mmHg 58%
03:00 +24°C° 0 mm 2 mps 685 mmHg 60%
04:00 +24°C° 0 mm 2 mps 685 mmHg 60%
05:00 +24°C° 0 mm 2 mps 685 mmHg 59%
06:00 +24°C° 0 mm 2 mps 685 mmHg 59%
07:00 +25°C° 0 mm 2 mps 685 mmHg 54%
08:00 +26°C° 0 mm 2 mps 685 mmHg 49%
09:00 +27°C° 0 mm 2 mps 685 mmHg 44%
10:00 +29°C° 0 mm 3 mps 685 mmHg 40%
11:00 +30°C° 0 mm 3 mps 685 mmHg 36%
12:00 +33°C° 0 mm 3 mps 685 mmHg 32%
13:00 +33°C° 0 mm 4 mps 685 mmHg 30%
14:00 +34°C° 0 mm 5 mps 685 mmHg 29%
15:00 +35°C° 0 mm 5 mps 684 mmHg 27%
16:00 +35°C° 0 mm 5 mps 684 mmHg 28%
17:00 +34°C° 0 mm 5 mps 684 mmHg 30%
18:00 +34°C° 0 mm 5 mps 684 mmHg 31%
19:00 +32°C° 0.1 mm 5 mps 684 mmHg 35%
20:00 +30°C° 0.1 mm 4 mps 684 mmHg 38%
21:00 +29°C° 0.1 mm 4 mps 684 mmHg 42%
22:00 +28°C° 0.1 mm 3 mps 684 mmHg 44%
23:00 +28°C° 0.1 mm 3 mps 684 mmHg 45%

Day after tomorrow, 13 July, Monday

Time Temperature Precipitation Wind Pressure Humidity
00:00 +27°C° 0.1 mm 2 mps 683 mmHg 46%
01:00 +26°C° 0.1 mm 2 mps 683 mmHg 48%
02:00 +26°C° 0.1 mm 1 mps 683 mmHg 50%
03:00 +25°C° 0.1 mm 1 mps 682 mmHg 52%
04:00 +25°C° 0.1 mm 1 mps 682 mmHg 52%
05:00 +25°C° 0.1 mm 1 mps 682 mmHg 53%
06:00 +25°C° 0.1 mm 1 mps 682 mmHg 53%
07:00 +26°C° 0 mm 1 mps 682 mmHg 49%
08:00 +27°C° 0 mm 1 mps 682 mmHg 45%
09:00 +28°C° 0 mm 1 mps 682 mmHg 40%
10:00 +30°C° 0 mm 1 mps 682 mmHg 37%
11:00 +31°C° 0 mm 1 mps 682 mmHg 34%
12:00 +33°C° 0 mm 1 mps 682 mmHg 30%
13:00 +35°C° 0.1 mm 2 mps 682 mmHg 29%
14:00 +35°C° 0.1 mm 4 mps 682 mmHg 28%
15:00 +36°C° 0.1 mm 5 mps 682 mmHg 26%
16:00 +33°C° 0.9 mm 4 mps 682 mmHg 33%
17:00 +30°C° 0.9 mm 3 mps 681 mmHg 40%
18:00 +28°C° 0.9 mm 2 mps 681 mmHg 46%
19:00 +27°C° 0 mm 3 mps 682 mmHg 48%
20:00 +27°C° 0 mm 3 mps 683 mmHg 50%
21:00 +26°C° 0 mm 3 mps 683 mmHg 51%
22:00 +26°C° 0 mm 2 mps 683 mmHg 55%
23:00 +25°C° 0 mm 2 mps 683 mmHg 58%

14 July, Tuesday

Time Temperature Precipitation Wind Pressure Humidity
00:00 +24°C° 0 mm 1 mps 682 mmHg 61%
01:00 +24°C° 0 mm 2 mps 682 mmHg 62%
02:00 +24°C° 0 mm 2 mps 682 mmHg 62%
03:00 +23°C° 0 mm 2 mps 682 mmHg 63%
04:00 +23°C° 0 mm 2 mps 682 mmHg 64%
05:00 +23°C° 0 mm 2 mps 682 mmHg 65%
06:00 +23°C° 0 mm 2 mps 683 mmHg 65%
07:00 +24°C° 0 mm 2 mps 683 mmHg 60%
08:00 +25°C° 0 mm 2 mps 683 mmHg 54%
09:00 +27°C° 0 mm 2 mps 684 mmHg 49%
10:00 +28°C° 0 mm 2 mps 684 mmHg 44%
11:00 +30°C° 0 mm 2 mps 684 mmHg 40%
12:00 +31°C° 0 mm 1 mps 684 mmHg 35%
13:00 +32°C° 0 mm 2 mps 684 mmHg 32%
14:00 +34°C° 0 mm 2 mps 684 mmHg 29%
15:00 +35°C° 0 mm 2 mps 684 mmHg 27%
16:00 +35°C° 0 mm 2 mps 684 mmHg 27%
17:00 +35°C° 0 mm 3 mps 684 mmHg 27%
18:00 +35°C° 0 mm 3 mps 684 mmHg 26%
19:00 +34°C° 0 mm 2 mps 685 mmHg 30%
20:00 +32°C° 0 mm 2 mps 685 mmHg 34%
21:00 +31°C° 0 mm 1 mps 685 mmHg 37%
22:00 +30°C° 0 mm 1 mps 685 mmHg 39%
23:00 +30°C° 0 mm 1 mps 685 mmHg 41%

15 July, Wednesday

Time Temperature Precipitation Wind Pressure Humidity
00:00 +29°C° 0 mm 1 mps 686 mmHg 43%
01:00 +28°C° 0 mm 1 mps 686 mmHg 45%
02:00 +27°C° 0 mm 1 mps 685 mmHg 47%
03:00 +27°C° 0 mm 2 mps 685 mmHg 49%
04:00 +26°C° 0 mm 2 mps 686 mmHg 49%
05:00 +26°C° 0 mm 2 mps 686 mmHg 49%
06:00 +26°C° 0 mm 2 mps 686 mmHg 49%
07:00 +27°C° 0 mm 2 mps 686 mmHg 47%
08:00 +28°C° 0 mm 2 mps 686 mmHg 44%
09:00 +29°C° 0 mm 2 mps 686 mmHg 41%
10:00 +31°C° 0 mm 2 mps 686 mmHg 38%
11:00 +32°C° 0 mm 1 mps 686 mmHg 35%
12:00 +33°C° 0 mm 1 mps 686 mmHg 32%
13:00 +34°C° 0 mm 1 mps 686 mmHg 29%
14:00 +35°C° 0 mm 1 mps 686 mmHg 26%
15:00 +36°C° 0 mm 1 mps 686 mmHg 23%
16:00 +37°C° 0 mm 2 mps 685 mmHg 23%
17:00 +37°C° 0 mm 4 mps 685 mmHg 24%
18:00 +37°C° 0 mm 5 mps 685 mmHg 24%
19:00 +35°C° 0.2 mm 4 mps 686 mmHg 30%
20:00 +33°C° 0.2 mm 4 mps 686 mmHg 35%
21:00 +30°C° 0.2 mm 3 mps 686 mmHg 41%
22:00 +29°C° 0.2 mm 3 mps 686 mmHg 45%
23:00 +27°C° 0.2 mm 3 mps 686 mmHg 50%

16 July, Thursday

Time Temperature Precipitation Wind Pressure Humidity
00:00 +26°C° 0.2 mm 3 mps 686 mmHg 54%
01:00 +26°C° 0.1 mm 2 mps 685 mmHg 55%
02:00 +26°C° 0.1 mm 2 mps 685 mmHg 56%
03:00 +25°C° 0.1 mm 1 mps 685 mmHg 56%
04:00 +25°C° 0.1 mm 1 mps 685 mmHg 58%
05:00 +25°C° 0.1 mm 2 mps 685 mmHg 60%
06:00 +24°C° 0.1 mm 2 mps 685 mmHg 61%
07:00 +25°C° 0.2 mm 2 mps 685 mmHg 58%
08:00 +26°C° 0.2 mm 2 mps 685 mmHg 54%
09:00 +27°C° 0.2 mm 2 mps 685 mmHg 51%
10:00 +29°C° 0 mm 2 mps 685 mmHg 47%
11:00 +30°C° 0 mm 1 mps 685 mmHg 43%
12:00 +31°C° 0 mm 1 mps 685 mmHg 39%
13:00 +32°C° 0 mm 1 mps 685 mmHg 37%
14:00 +34°C° 0 mm 2 mps 684 mmHg 34%
15:00 +35°C° 0 mm 2 mps 684 mmHg 31%
16:00 +35°C° 0 mm 2 mps 684 mmHg 32%
17:00 +35°C° 0 mm 3 mps 684 mmHg 33%
18:00 +34°C° 0 mm 4 mps 684 mmHg 34%
19:00 +33°C° 0.1 mm 3 mps 684 mmHg 40%
20:00 +30°C° 0.1 mm 3 mps 684 mmHg 45%
21:00 +28°C° 0.1 mm 3 mps 684 mmHg 51%
22:00 +28°C° 0.1 mm 3 mps 684 mmHg 52%
23:00 +28°C° 0.1 mm 2 mps 684 mmHg 52%
Show more